CAPE
7 15 92 233 203 0 0 0 0 2 0 0 0 0 2 0 23 15 36 23 135 163 126 62 116 178 225 215 133 100 81 185 194
254 69 145 107 64 1 0 0 3 1 0 0 0 0 1 4 6 13 11 26 45 17 17 10 9 25 29 13 19 13 18 13 39
63 58 192 84 3 5 0 1 4 0 0 0 0 0 4 4 10 20 13 125 15 9 3 4 3 8 5 2 2 3 3 4 6
140 159 149 87 43 4 0 1 0 0 0 0 0 0 0 1 5 13 0 110 9 11 8 9 10 7 4 1 0 1 2 1 2
156 128 159 151 80 38 2 0 0 0 0 0 0 0 0 0 0 0 0 0 1 4 5 5 4 5 2 1 1 1 2 2 4
1 12 73 113 97 20 0 0 0 0 0 0 0 0 0 0 0 0 0 0 3 5 1 2 2 2 2 1 0 2 1 1 2
0 2 42 101 69 46 12 26 0 0 0 0 0 0 0 0 0 0 0 0 2 0 0 0 0 0 0 0 1 2 1 2 1
0 0 0 0 0 0 3 31 0 0 0 0 0 0 0 0 0 0 0 0 0 0 0 0 0 0 0 0 0 0 0 1 1
0 0 0 0 0 0 0 0 0 0 0 0 0 0 0 0 0 0 0 0 0 0 0 0 0 0 0 0 0 0 0 0 1
0 0 0 0 0 0 0 0 0 0 0 0 0 0 0 0 0 0 0 0 0 0 0 0 0 0 0 0 0 0 0 0 0
0 0 0 0 0 0 0 0 0 0 0 0 0 0 0 0 0 0 0 0 0 0 0 0 0 0 0 0 0 0 0 0 0
0 0 0 0 0 0 0 0 0 0 0 0 0 0 0 0 0 0 0 0 0 0 0 0 0 0 0 0 0 0 0 0 0
0 0 0 0 0 0 0 0 0 0 0 0 0 0 0 0 0 0 0 0 0 0 0 0 0 0 0 0 0 0 0 0 0
0 0 0 0 0 0 0 0 0 0 0 0 0 0 0 0 0 0 0 0 0 0 0 0 0 0 0 0 0 0 0 0 0
0 0 0 0 0 0 0 0 0 0 0 0 0 0 0 0 0 0 0 0 0 0 0 0 0 0 0 0 0 0 0 0 0
0 0 0 0 0 0 0 0 0 0 0 0 0 0 0 0 0 0 0 0 0 0 0 0 0 0 0 0 0 0 0 0 0
0 0 0 0 0 0 0 0 0 0 0 0 0 0 0 0 0 0 0 0 0 0 0 0 0 0 0 0 0 0 0 0 0
39 0 0 0 0 0 0 0 0 0 0 0 0 0 0 0 0 0 0 0 0 0 0 0 0 0 0 0 0 0 0 0 0
179 62 20 3 0 0 0 0 0 0 0 0 0 0 0 0 0 0 0 0 0 0 0 0 0 0 0 0 0 0 0 0 0
147 200 244 50 53 23 0 0 0 0 0 0 0 0 0 0 0 0 0 0 0 0 0 0 0 0 0 0 0 0 0 0 0
CIN
-0 0 -27 -12 -19 0 0 0 0 -0 0 0 0 0 -41 -1 -22 -19 -10 -10 -21 -8 -19 -38 -25 -5 -1 -9 -34 -43 -49 -17 -19
-42 -67 -30 -27 -23 -29 0 0 0 0 0 0 0 0 -58 -51 -37 -39 -25 -3 -8 -0 -0 -0 0 -32 -55 -82 -48 -84 -121 -126 -138
-104 -88 -36 -43 -1 -13 0 0 0 -0 0 0 0 0 -80 -26 -29 -46 -21 -8 -0 0 0 0 0 -0 0 0 0 0 0 0 0
-105 -69 -55 -62 -68 -2 0 0 0 0 0 0 0 0 0 -36 -26 -25 0 -15 0 0 0 0 0 0 0 -0 0 -0 0 0 -0
-106 -102 -75 -67 -80 -55 0 0 0 0 0 0 0 0 0 0 0 0 0 0 0 0 0 0 0 0 0 0 -0 0 0 0 0
-18 -27 -144 -111 -106 -90 0 0 0 0 0 0 0 0 0 0 0 0 0 0 0 0 0 -0 0 0 0 0 0 -0 -0 -0 0
0 -31 -221 -146 -157 -165 -67 -76 0 0 0 0 0 0 0 0 0 0 0 0 0 0 0 0 0 0 0 0 0 0 0 0 0
0 0 0 0 0 0 -10 -177 0 0 0 0 0 0 0 0 0 0 0 0 0 0 0 0 0 0 0 0 0 0 0 -0 0
0 0 0 0 0 0 0 0 0 0 0 0 0 0 0 0 0 0 0 0 0 0 0 0 0 0 0 0 0 0 0 0 -0
0 0 0 0 0 0 0 0 0 0 0 0 0 0 0 0 0 0 0 0 0 0 0 0 0 0 0 0 0 0 0 0 0
0 0 0 0 0 0 0 0 0 0 0 0 0 0 0 0 0 0 0 0 0 0 0 0 0 0 0 0 0 0 0 0 0
0 0 0 0 0 0 0 0 0 0 0 0 0 0 0 0 0 0 0 0 0 0 0 0 0 0 0 0 0 0 0 0 0
0 0 0 0 0 0 0 0 0 0 0 0 0 0 0 0 0 0 0 0 0 0 0 0 0 0 0 0 0 0 0 0 0
0 0 0 0 0 0 0 0 0 0 0 0 0 0 0 0 0 0 0 0 0 0 0 0 0 0 0 0 0 0 0 0 0
0 0 0 0 0 0 0 0 0 0 0 0 0 0 0 0 0 0 0 0 0 0 0 0 0 0 0 0 0 0 0 0 0
0 0 0 0 0 0 0 0 0 0 0 0 0 0 0 0 0 0 0 0 0 0 0 0 0 0 0 0 0 0 0 0 0
0 0 0 0 0 0 0 0 0 0 0 0 0 0 0 0 0 0 0 0 0 0 0 0 0 0 0 0 0 0 0 0 0
-138 0 0 0 0 0 0 0 0 0 0 0 0 0 0 0 0 0 0 0 0 0 0 0 0 0 0 0 0 0 0 0 0
-141 -140 -165 -68 0 0 0 0 0 0 0 0 0 0 0 0 0 0 0 0 0 0 0 0 0 0 0 0 0 0 0 0 0
-130 -104 -75 -114 -117 -136 0 0 -9 0 0 0 0 0 0 0 0 0 0 0 0 0 0 0 0 0 0 0 0 0 0 0 0
Wind_Speed
8 11 11 10 15 14 13 12 12 12 11 9 4 3 5 9 8 7 10 7 14 19 18 15 17 19 17 17 18 17 17 18 18
14 14 12 15 14 14 13 12 12 11 9 7 2 3 6 3 7 7 7 7 17 17 15 13 14 16 17 17 15 15 14 15 15
17 14 14 15 14 13 12 12 11 9 8 6 1 5 7 2 7 8 6 11 15 13 12 13 13 14 15 14 14 14 14 15 15
16 14 14 14 13 12 11 10 9 8 7 6 3 4 7 3 5 10 4 11 12 12 12 13 13 14 14 14 14 14 14 14 14
11 12 10 12 11 11 10 10 9 8 7 5 2 4 7 1 8 6 4 10 11 12 12 12 12 12 13 13 13 14 14 14 14
7 7 11 11 10 10 9 9 9 8 6 4 2 5 3 3 6 4 10 11 11 12 11 11 11 11 11 12 12 13 13 14 14
8 8 11 10 10 9 9 9 8 7 4 3 3 3 5 4 6 4 11 10 10 11 10 10 10 11 11 11 12 12 12 12 13
6 4 4 4 6 4 5 5 3 6 4 5 4 5 3 3 4 7 11 10 9 10 9 9 10 9 10 10 11 11 11 11 12
5 5 5 5 4 5 5 4 6 6 6 7 6 4 4 3 3 6 11 10 9 9 9 9 9 8 9 9 10 10 10 10 10
5 5 5 5 6 5 6 6 7 6 4 3 4 4 4 4 4 3 11 10 9 9 9 9 9 8 9 8 8 8 9 9 8
5 5 5 5 6 5 6 5 5 5 4 4 4 5 4 4 7 5 5 10 9 9 9 9 8 8 8 8 7 6 6 6 6
6 5 4 4 4 6 4 4 4 3 3 5 5 5 6 4 5 6 5 6 9 9 9 9 8 8 8 8 7 5 4 4 4
5 4 4 5 4 4 3 3 3 3 4 2 3 4 4 5 5 5 5 5 5 6 10 11 9 9 8 8 7 6 4 3 2
6 4 4 6 4 4 3 3 4 3 3 3 4 3 3 4 3 6 7 7 6 4 8 10 8 9 9 8 7 6 4 2 1
6 5 6 5 4 5 3 4 3 4 5 4 4 4 3 3 4 5 4 6 7 6 6 5 5 8 9 8 7 5 3 2 1
9 6 7 6 6 6 6 5 5 4 4 4 1 1 5 5 4 4 4 6 6 7 6 5 4 4 10 8 7 5 4 4 2
9 9 8 7 5 7 7 7 4 4 5 5 3 2 3 4 6 4 5 7 5 6 8 7 7 6 4 6 9 8 7 5 3
8 8 7 6 6 7 7 8 9 7 5 7 6 3 5 2 3 6 5 6 4 5 6 7 7 8 5 9 8 9 5 4 4
6 6 7 7 5 6 7 6 7 6 8 1 9 2 4 4 1 1 4 5 6 6 5 6 6 6 5 9 11 10 5 4 4
8 5 6 6 5 5 6 6 7 8 6 8 3 6 2 2 3 3 3 1 3 4 5 5 5 6 6 5 8 11 7 5 6
Wind_Direction
126 121 107 110 117 116 114 113 110 99 93 94 94 46 2 356 67 72 67 59 81 72 76 73 66 71 74 69 58 56 55 50 49
154 122 114 120 117 118 121 119 111 101 93 92 38 336 4 351 89 72 76 78 81 72 71 70 70 70 69 67 63 59 58 58 56
118 120 123 123 122 121 122 119 115 107 99 94 71 346 350 61 101 83 76 81 80 82 79 80 77 71 70 70 68 66 65 65 63
122 122 128 127 125 121 124 126 125 116 101 99 81 333 333 17 114 95 83 86 83 84 77 79 78 77 75 70 66 64 63 63 64
119 118 121 124 126 127 128 131 131 122 113 112 137 300 327 33 90 95 88 92 90 89 84 80 82 79 77 71 68 66 62 60 58
149 158 135 132 132 136 140 141 135 126 129 137 208 284 282 129 99 101 96 96 98 95 91 85 84 83 79 76 74 72 68 67 63
159 130 135 146 142 146 152 149 152 168 162 172 222 248 263 94 105 110 111 111 109 109 105 102 99 94 89 84 81 76 72 70 67
122 129 144 143 150 158 150 152 191 206 208 165 204 230 186 119 114 131 126 124 122 119 115 113 108 101 98 94 87 83 78 77 73
158 155 168 167 171 182 179 179 208 230 207 175 201 196 111 97 117 142 136 139 133 130 128 127 120 115 106 97 96 94 88 82 74
184 165 169 182 168 190 187 193 202 195 196 220 162 123 116 109 115 127 140 139 144 144 142 143 137 133 121 113 105 95 90 86 79
182 176 179 183 168 201 181 205 180 170 177 195 144 135 123 147 122 136 141 146 154 160 159 159 157 150 140 134 123 110 99 88 81
178 177 178 183 183 194 182 202 162 168 183 175 162 159 168 180 148 155 150 148 163 175 178 169 171 166 155 149 146 133 117 105 86
178 178 187 185 179 179 182 178 172 176 171 165 183 163 160 175 185 147 156 161 161 180 184 177 181 177 177 166 161 150 132 107 77
171 182 205 186 184 183 186 190 154 165 179 181 189 173 178 194 184 179 160 174 160 168 174 164 178 186 184 180 173 166 163 143 54
174 187 199 191 183 188 179 172 180 161 177 186 178 184 192 198 204 191 180 166 158 162 149 144 157 179 188 187 184 180 176 204 254
185 189 191 194 186 188 186 176 181 202 160 124 6 262 206 215 215 203 194 177 176 148 154 159 158 176 189 190 192 191 200 189 189
192 194 204 193 181 189 189 178 173 181 179 153 119 242 301 248 216 209 204 192 172 176 166 175 164 172 175 176 190 197 183 193 212
194 192 195 209 190 199 193 191 180 190 202 177 156 197 221 153 205 208 202 184 176 178 177 179 171 163 160 169 172 170 195 205 227
250 217 194 197 199 201 212 193 193 150 199 154 225 199 144 176 200 292 213 192 179 181 183 168 158 149 150 164 166 171 185 238 260
242 256 228 207 207 211 202 208 198 201 179 199 177 238 215 193 140 195 236 233 187 176 164 156 157 157 139 147 157 171 191 242 273